Regional Weather Roundup
Issued by NWS

Home | Current Version | Previous Version | Graphics & Text | Print | Product List | Glossary Off
Versions: 1 2 3 4 5 6 7 8 9 10 11 12 13 14 15 16 17 18 19 20 21 22 23 24 25 26 27 28 29 30 31 32 33 34 35 36 37 38 39 40 41 42 43 44 45 46 47 48 49 50

000
ASUS43 KDTX 050910
RWRMI
MICHIGAN HOURLY REGIONAL WEATHER ROUNDUP
NATIONAL WEATHER SERVICE DETROIT/PONTIAC MI
500 AM EDT THU MAY 05 2016

NOTE: "FAIR" INDICATES FEW OR NO CLOUDS BELOW 12,000 FEET WITH NO
SIGNIFICANT WEATHER AND/OR OBSTRUCTION TO VISIBILITY.

MIZ047>049-052>055-059>063-066>070-074>076-081>083-051000-
SOUTHEAST LOWER MICHIGAN

CITY           SKY/WX    TMP DP  RH WIND       PRES   REMARKS
ADRIAN         CLOUDY    46  43  89 N14       29.76R
ALMA           CLOUDY    43  42  95 N7        29.85R
ANN ARBOR      CLOUDY    44  42  93 N13G18    29.75S
BAD AXE        CLEAR     40  39  98 N6        29.83R
CARO           PTCLDY    42  40  94 N6        29.82R
DETROIT CITY   PTCLDY    44  40  85 N9        29.76R
DETROIT        CLOUDY    45  42  89 N12       29.75R FOG
FLINT          CLOUDY    47  42  83 N13       29.80R
GROSSE ILE     CLOUDY    46  43  87 N12G17    29.73R
HILLSDALE      CLOUDY    45  43  92 N9        29.76R FOG
HOWELL         CLOUDY    46  44  93 N7        29.79R

CITY           SKY/WX    TMP DP  RH WIND       PRES   REMARKS
JACKSON        CLOUDY    46  43  89 N14       29.79R
LAMBERTVILLE   CLOUDY    48  46  93 N6        29.74R FOG
LANSING        CLOUDY    45  42  89 N12       29.82R
LAPEER         FAIR      42  40  95 N6        29.80R
MASON          CLOUDY    45  42  91 N8G16     29.80R
MONROE         CLOUDY    48  47  96 N10G16    29.73R
MT. CLEMENS    PTCLDY    42  42  99 N10       29.75R
PONTIAC        CLEAR     42  41  96 N9        29.77R FOG
PORT HOPE        N/A     42  40  92 NW9       29.81R
PORT HURON     CLEAR     43  39  87 N6        29.77R
TRI CITIES     CLEAR     44  41  89 N9        29.84R
MIDLAND        FAIR      42  41  96 NW5       29.84S
TROY           CLEAR     44  42  92 N7        29.78R
SAGINAW HB     CLEAR     45  41  87 N8        29.83R
$$
MIZ043>046-050>051-056>058-064>065-071>073-077>080-051000-
SOUTHWEST LOWER MICHIGAN

CITY           SKY/WX    TMP DP  RH WIND       PRES   REMARKS
BATTLE CREEK   CLOUDY    45  42  89 N13       29.81R
BENTON HARBOR  CLOUDY    44  40  85 N5        29.83S
BIG RAPIDS     PTCLDY    40  36  86 N5        29.86R
COLDWATER      CLOUDY    46  45  96 N15G23    29.78R
FREMONT        FAIR      39  37  90 N7        29.87R WCI  34
HOLLAND        CLOUDY   N/A N/A N/A N8        29.86R
GRAND RAPIDS   CLOUDY    44  41  89 N10       29.84S
IONIA          CLOUDY    44  41  91 N7        29.83S
KALAMAZOO      CLOUDY    46  42  86 NE10G16   29.82R
LUDINGTON      CLEAR     38  35  90 N3        29.90S
MARSHALL       CLOUDY    46  43  91 N8        29.79R
MOUNT PLEASANT CLOUDY    44  42  92 N8        29.85R
MUSKEGON       CLOUDY    42  35  76 N9        29.88R
SOUTH HAVEN    CLOUDY    43  41  93 N7        29.84R
$$
MIZ016>042-051000-
NORTHERN LOWER MICHIGAN

CITY           SKY/WX    TMP DP  RH WIND       PRES   REMARKS
ALPENA         PTCLDY    41  39  93 NW6       29.88R
BEAVER ISLAND  CLEAR     37  36  94 CALM      29.93S
BELLAIRE       CLOUDY    42  37  83 CALM      29.92R
CADILLAC       CLOUDY    38  36  94 N7        29.87S WCI  32
CHARLEVOIX     PTCLDY    38  37  95 N3        29.95S
FRANKFORT      CLOUDY    38  36  92 CALM      29.92R
GAYLORD        CLOUDY    42  40  92 N3        29.89R
GRAYLING       CLOUDY    45  41  87 NW3       29.89S
HARBOR SPRINGS CLEAR     38  37  92 N3        29.91S
HOUGHTON LAKE  CLOUDY    43  41  93 N8        29.88R
MANISTEE       CLEAR     37  30  75 CALM      29.92R
OSCODA         CLEAR     42  41  93 N7        29.85R
PELLSTON       CLEAR     35  33  92 NW3       29.92R
ROGERS CITY    CLOUDY    41  39  93 NW3       29.90S
TRAVERSE CITY  CLOUDY    42  36  79 N6        29.91R
$$
MIZ007>008-015-051000-
EASTERN UPPER MICHIGAN

CITY           SKY/WX    TMP DP  RH WIND       PRES   REMARKS
KINROSS          N/A     39  39 100 N5        29.92R
MACKINAC ISLAN CLEAR     39  39 100 N7        29.92R WCI  34
NEWBERRY       CLEAR     33  32  96 N3        29.93S
S. S. MARIE    CLOUDY    43  39  86 N5        29.92R
MUNISING         N/A     37  34  89 NW8       29.97S WCI  31
$$
MIZ004>006-011>014-085-051000-
CENTRAL UPPER MICHIGAN

CITY           SKY/WX    TMP DP  RH WIND       PRES   REMARKS
MANISTIQUE     CLEAR     32  32  98 N6        29.95R WCI  27
ESCANABA       CLEAR     34  30  86 N5        29.97R WCI  30
MENOMINEE      CLEAR     34  30  86 N6        29.99R WCI  29
SAWYER-GWINN   CLEAR     31  30  94 N3        29.96S
$$
MIZ001>003-009>011-084-051000-
WESTERN UPPER MICHIGAN

CITY           SKY/WX    TMP DP  RH WIND       PRES   REMARKS
IRON MOUNTAIN  CLEAR     30  28  92 CALM      29.97S
HOUGHTON       PTCLDY    32  27  81 W5        29.99S WCI  27
COPPER HARBOR    N/A     33  31  92 W5        30.00S WCI  29
IRONWOOD         N/A     30  30 100 CALM      29.98F
$$

ABBREVIATIONS USED IN REMARKS
   TC - TEMPERATURE IN CELSIUS
  WCI - WIND CHILL INDEX
   HX - HEAT INDEX
  VSB - VISIBILITY





USA.gov is the U.S. government's official web portal to all federal, state and local government web resources and services.